Weather History for Garrison, ND

Change the Weather History Date:

Sunday, July 28, 2013

  Actual Average Record
Temperature  
Mean Temperature 61 °F -  
Max Temperature 74 °F 79 °F 100 °F (1999)
Min Temperature 47 °F 54 °F 45 °F (2005)
Degree Days  
Heating Degree Days 4    
Growing Degree Days 10 (Base 50)    
Moisture  
Dew Point 48 °F    
Average Humidity 69    
Maximum Humidity 93    
Minimum Humidity 44    
Precipitation  
Precipitation 0.00 in - - ()
Month to date precipitation 2.09  
Year to date precipitation 18.78  
Sea Level Pressure  
Sea Level Pressure 30.02 in    
Wind  
Wind Speed 9 mph (SE)    
Max Wind Speed 17 mph    
Max Gust Speed 22 mph    
Averages and records for this station are not official NWS values.
T = Trace of Precipitation, MM = Missing Value Source: NWS Daily Summary

Daily Weather History Graph

Daily Weather History Graph

Search for Another Location

Airport:

Trip Planner

Search our weather history database for the weather conditions in past years. The results will help you decide how hot, cold, wet, or windy it might be!

Date:

Astronomy

Jul. 28, 2013 Rise Set
Actual Time 6:18 AM CDT 9:25 PM CDT
Civil Twilight 5:41 AM CDT 10:01 PM CDT
Nautical Twilight 4:54 AM CDT 10:49 PM CDT
Astronomical Twilight 3:54 AM CDT 11:47 PM CDT
Moon No Moon Rise 1:37 PM CDT (7/28)
Length of Visible Light 16h 20m
Length of Day
15h 06m
Waning Gibbous, 60% of the Moon is Illuminated
Jul 28
Waning Gibbous
Jul 29
Last Quarter
Aug 6
New
Aug 14
First Quarter
Aug 20
Full

Hourly Weather History & Observations

Time (CDT) Temp. Dew Point Humidity Pressure Visibility Wind Dir Wind Speed Gust Speed Precip Events Conditions
12:52 AM 50.0 °F 46.9 °F 89% 30.08 in - East 4.6 mph - N/A   Unknown
1:52 AM 50.0 °F 46.9 °F 89% 30.08 in - East 5.8 mph - N/A   Unknown
2:52 AM 50.0 °F 46.9 °F 89% 30.06 in - East 6.9 mph - N/A   Unknown
3:52 AM 48.9 °F 46.9 °F 93% 30.06 in - SE 4.6 mph - N/A   Unknown
4:52 AM 48.9 °F 45.0 °F 86% 30.05 in - ESE 4.6 mph - N/A   Unknown
5:52 AM 48.9 °F 45.0 °F 86% 30.05 in - ESE 5.8 mph - N/A   Unknown
6:52 AM 48.9 °F 45.0 °F 86% 30.06 in - ESE 4.6 mph - N/A   Unknown
7:52 AM 54.0 °F 46.9 °F 77% 30.06 in - SE 4.6 mph - N/A   Unknown
8:52 AM 57.9 °F 46.9 °F 67% 30.06 in - SE 9.2 mph - N/A   Unknown
9:52 AM 62.1 °F 46.0 °F 56% 30.05 in - SSE 13.8 mph 19.6 mph N/A   Unknown
10:52 AM 64.9 °F 48.9 °F 56% 30.04 in - SSE 13.8 mph 20.7 mph N/A   Unknown
11:52 AM 66.9 °F 48.0 °F 51% 30.04 in - SSE 15.0 mph 18.4 mph N/A   Unknown
12:52 PM 66.9 °F 48.0 °F 51% 30.03 in - SSE 10.4 mph - N/A   Unknown
1:52 PM 68.0 °F 48.9 °F 50% 30.02 in - South 11.5 mph - N/A   Unknown
2:52 PM 69.1 °F 46.9 °F 45% 30.01 in - SSE 10.4 mph - N/A   Unknown
3:52 PM 70.0 °F 48.9 °F 47% 30.00 in - SE 10.4 mph - N/A   Unknown
4:52 PM 72.0 °F 48.9 °F 44% 29.97 in - SE 13.8 mph 17.3 mph N/A   Unknown
5:52 PM 73.0 °F 50.0 °F 44% 29.97 in - SE 11.5 mph - N/A   Unknown
6:52 PM 71.1 °F 50.0 °F 47% 29.96 in - ESE 10.4 mph - N/A   Unknown
7:52 PM 68.0 °F 52.0 °F 56% 29.95 in - SE 6.9 mph - N/A   Unknown
8:52 PM 63.0 °F 53.1 °F 70% 29.95 in - ESE 8.1 mph - N/A   Unknown
9:52 PM 60.1 °F 51.1 °F 72% 29.96 in - ESE 5.8 mph - N/A   Unknown
10:52 PM 59.0 °F 51.1 °F 75% 29.96 in - SE 6.9 mph - N/A   Unknown
11:52 PM 57.9 °F 50.0 °F 75% 29.96 in - SE 6.9 mph - N/A   Unknown